| time (UTC) | temp F | wind direction | speed knots | gust knots | rain 1hr in | rain 24hr in | rain mn in | humidity % | barometer mb |
| 20260503053707 | 51 | 111 | 5.2 | 9.6 | 0.00 | 0.00 | 0.00 | 78 | 1017.0 |
| 20260503053214 | 50 | 158 | 4.3 | 9.6 | 0.00 | 0.00 | 0.00 | 80 | 1016.9 |
| 20260503052705 | 50 | 155 | 4.3 | 8.7 | 0.00 | 0.00 | 0.00 | 81 | 1016.9 |
| 20260503051719 | 49 | 169 | 3.5 | 7.0 | 0.00 | 0.00 | 0.00 | 82 | 1017.0 |
| 20260503051207 | 48 | 181 | 2.6 | 7.0 | 0.00 | 0.00 | 0.00 | 83 | 1017.0 |
| 20260503050710 | 48 | 151 | 2.6 | 7.0 | 0.00 | 0.00 | 0.00 | 84 | 1017.0 |
| 20260503050656 | 47 | 182 | 3.5 | 6.1 | 0.00 | 0.00 | 0.00 | 84 | 1016.9 |
| 20260503050555 | 47 | 180 | 2.6 | 6.1 | 0.00 | 0.00 | 0.00 | 84 | 1017.0 |
| 20260503045217 | 47 | 157 | 2.6 | 5.2 | 0.00 | 0.00 | 0.00 | 84 | 1016.9 |
| 20260503044713 | 46 | 161 | 1.7 | 3.5 | 0.00 | 0.00 | 0.00 | 83 | 1017.0 |
| 20260503044206 | 45 | 225 | 2.6 | 3.5 | 0.00 | 0.00 | 0.00 | 83 | 1016.9 |
| 20260503043713 | 45 | 254 | 1.7 | 3.5 | 0.00 | 0.00 | 0.00 | 82 | 1016.9 |
| 20260503043217 | 45 | 256 | 0.9 | 1.7 | 0.00 | 0.00 | 0.00 | 81 | 1016.9 |
| 20260503042206 | 45 | 256 | 0.9 | 1.7 | 0.00 | 0.00 | 0.00 | 80 | 1016.8 |
| 20260503041708 | 45 | 256 | 0.9 | 1.7 | 0.00 | 0.00 | 0.00 | 79 | 1016.8 |
| 20260503041216 | 45 | 256 | 0.9 | 3.5 | 0.00 | 0.00 | 0.00 | 79 | 1016.7 |
| 20260503040708 | 45 | 256 | 1.7 | 3.5 | 0.00 | 0.00 | 0.00 | 78 | 1016.6 |
| 20260503040207 | 45 | 259 | 1.7 | 3.5 | 0.00 | 0.00 | 0.00 | 78 | 1016.5 |
| 20260503035752 | 45 | 257 | 1.7 | 4.3 | 0.00 | 0.00 | 0.00 | 77 | 1016.6 |
| 20260503034212 | 45 | 234 | 2.6 | 5.2 | 0.00 | 0.00 | 0.00 | 76 | 1016.5 |
| 20260503033716 | 45 | 252 | 3.5 | 4.3 | 0.00 | 0.00 | 0.00 | 76 | 1016.5 |
| 20260503033214 | 45 | 249 | 3.5 | 6.1 | 0.00 | 0.00 | 0.00 | 76 | 1016.5 |
| 20260503032719 | 46 | 242 | 3.5 | 7.0 | 0.00 | 0.00 | 0.00 | 76 | 1016.5 |
| 20260503032213 | 46 | 252 | 4.3 | 7.0 | 0.00 | 0.00 | 0.00 | 75 | 1016.5 |
| 20260503031717 | 46 | 251 | 5.2 | 7.0 | 0.00 | 0.00 | 0.00 | 75 | 1016.4 |
| 20260503031217 | 46 | 248 | 3.5 | 6.1 | 0.00 | 0.00 | 0.00 | 74 | 1016.5 |
| 20260503030712 | 46 | 249 | 2.6 | 3.5 | 0.00 | 0.00 | 0.00 | 74 | 1016.4 |
| 20260503030218 | 47 | 245 | 1.7 | 3.5 | 0.00 | 0.00 | 0.00 | 74 | 1016.4 |
| 20260503024712 | 47 | 206 | 1.7 | 7.0 | 0.00 | 0.00 | 0.00 | 73 | 1016.4 |
| 20260503024650 | 47 | 168 | 3.5 | 7.0 | 0.00 | 0.00 | 0.00 | 73 | 1016.4 |
| 20260503023708 | 47 | 135 | 4.3 | 6.1 | 0.00 | 0.00 | 0.00 | 72 | 1016.3 |
| 20260503023205 | 47 | 248 | 3.5 | 6.1 | 0.00 | 0.00 | 0.00 | 72 | 1016.2 |
| 20260503021218 | 48 | 250 | 3.5 | 5.2 | 0.00 | 0.00 | 0.00 | 71 | 1016.3 |
| 20260503020718 | 48 | 250 | 4.3 | 6.1 | 0.00 | 0.00 | 0.00 | 71 | 1016.2 |
| 20260503020212 | 49 | 242 | 4.3 | 6.1 | 0.00 | 0.00 | 0.00 | 71 | 1016.2 |
| 20260503015716 | 49 | 234 | 4.3 | 6.1 | 0.00 | 0.00 | 0.00 | 70 | 1016.2 |
| 20260503015211 | 49 | 233 | 4.3 | 5.2 | 0.00 | 0.00 | 0.00 | 70 | 1016.2 |
| 20260503014712 | 49 | 238 | 4.3 | 5.2 | 0.00 | 0.00 | 0.00 | 70 | 1016.3 |
| 20260503014216 | 49 | 241 | 3.5 | 5.2 | 0.00 | 0.00 | 0.00 | 70 | 1016.3 |
| 20260503013718 | 49 | 222 | 3.5 | 7.0 | 0.00 | 0.00 | 0.00 | 69 | 1016.3 |
| 20260503013217 | 49 | 228 | 3.5 | 7.0 | 0.00 | 0.00 | 0.00 | 70 | 1016.3 |
| 20260503012718 | 49 | 232 | 3.5 | 7.0 | 0.00 | 0.00 | 0.00 | 69 | 1016.3 |
| 20260503012220 | 49 | 228 | 3.5 | 7.0 | 0.00 | 0.00 | 0.00 | 70 | 1016.3 |
| 20260503011717 | 50 | 229 | 4.3 | 7.8 | 0.00 | 0.00 | 0.00 | 69 | 1016.3 |
| 20260503011210 | 50 | 220 | 4.3 | 7.8 | 0.00 | 0.00 | 0.00 | 68 | 1016.4 |
| 20260503010735 | 50 | 242 | 5.2 | 7.8 | 0.00 | 0.00 | 0.00 | 68 | 1016.4 |
| 20260503010220 | 50 | 229 | 5.2 | 7.8 | 0.00 | 0.00 | 0.00 | 68 | 1016.4 |
| 20260503005716 | 50 | 227 | 5.2 | 8.7 | 0.00 | 0.00 | 0.00 | 68 | 1016.4 |
| 20260503005213 | 50 | 235 | 6.1 | 8.7 | 0.00 | 0.00 | 0.00 | 68 | 1016.4 |
| 20260503004705 | 50 | 240 | 6.1 | 8.7 | 0.00 | 0.00 | 0.00 | 68 | 1016.4 |
| 20260503004208 | 51 | 238 | 6.1 | 7.8 | 0.00 | 0.00 | 0.00 | 67 | 1016.5 |
| 20260503003711 | 51 | 227 | 5.2 | 6.1 | 0.00 | 0.00 | 0.00 | 66 | 1016.4 |
| 20260503003214 | 51 | 228 | 4.3 | 7.8 | 0.00 | 0.00 | 0.00 | 65 | 1016.5 |
| 20260503002220 | 52 | 229 | 5.2 | 7.8 | 0.00 | 0.00 | 0.00 | 63 | 1016.5 |
| 20260503001713 | 52 | 229 | 5.2 | 7.8 | 0.00 | 0.00 | 0.00 | 63 | 1016.6 |
| 20260503001223 | 53 | 236 | 5.2 | 7.0 | 0.00 | 0.00 | 0.00 | 62 | 1016.7 |
| 20260503000720 | 53 | 236 | 5.2 | 8.7 | 0.00 | 0.00 | 0.00 | 61 | 1016.7 |
| 20260503000207 | 54 | 230 | 5.2 | 9.6 | 0.00 | 0.00 | 0.00 | 60 | 1016.7 |
| 20260502235709 | 54 | 238 | 6.1 | 9.6 | 0.00 | 0.00 | 0.00 | 60 | 1016.8 |
| 20260502235205 | 53 | 219 | 6.1 | 9.6 | 0.00 | 0.00 | 0.00 | 61 | 1016.8 |
| 20260502234719 | 53 | 246 | 6.1 | 8.7 | 0.00 | 0.00 | 0.00 | 61 | 1016.9 |
| 20260502234209 | 53 | 240 | 6.1 | 9.6 | 0.00 | 0.00 | 0.00 | 61 | 1017.0 |
| 20260502233706 | 53 | 239 | 6.1 | 9.6 | 0.00 | 0.00 | 0.00 | 61 | 1017.0 |
| 20260502233213 | 53 | 238 | 6.1 | 10.4 | 0.00 | 0.00 | 0.00 | 61 | 1017.0 |
| 20260502232717 | 53 | 238 | 7.0 | 10.4 | 0.00 | 0.00 | 0.00 | 60 | 1017.0 |
| 20260502232213 | 53 | 236 | 6.1 | 10.4 | 0.00 | 0.00 | 0.00 | 60 | 1017.0 |
| 20260502231718 | 53 | 232 | 6.1 | 7.8 | 0.00 | 0.00 | 0.00 | 61 | 1017.1 |
| 20260502231215 | 53 | 236 | 5.2 | 7.8 | 0.00 | 0.00 | 0.00 | 61 | 1017.1 |
| 20260502230715 | 53 | 234 | 4.3 | 7.8 | 0.00 | 0.00 | 0.00 | 62 | 1017.2 |
| 20260502225215 | 52 | 222 | 6.1 | 8.7 | 0.00 | 0.00 | 0.00 | 64 | 1017.4 |
| 20260502224212 | 52 | 238 | 5.2 | 7.8 | 0.00 | 0.00 | 0.00 | 63 | 1017.6 |
| 20260502223706 | 52 | 235 | 6.1 | 7.8 | 0.00 | 0.00 | 0.00 | 63 | 1017.7 |
| 20260502223213 | 52 | 242 | 6.1 | 7.8 | 0.00 | 0.00 | 0.00 | 63 | 1017.7 |
| 20260502222717 | 52 | 240 | 6.1 | 7.8 | 0.00 | 0.00 | 0.00 | 63 | 1017.6 |
| 20260502222215 | 53 | 242 | 6.1 | 7.8 | 0.00 | 0.00 | 0.00 | 62 | 1017.7 |
| 20260502220713 | 53 | 234 | 6.1 | 8.7 | 0.00 | 0.00 | 0.00 | 62 | 1017.8 |
| 20260502220218 | 53 | 236 | 6.1 | 8.7 | 0.00 | 0.00 | 0.00 | 61 | 1017.7 |
| 20260502215706 | 53 | 227 | 6.1 | 8.7 | 0.00 | 0.00 | 0.00 | 61 | 1017.8 |
| 20260502215215 | 54 | 227 | 6.1 | 8.7 | 0.00 | 0.00 | 0.00 | 61 | 1017.8 |
| 20260502214706 | 54 | 238 | 5.2 | 8.7 | 0.00 | 0.00 | 0.00 | 60 | 1017.7 |
| 20260502214211 | 54 | 246 | 5.2 | 8.7 | 0.00 | 0.00 | 0.00 | 60 | 1017.7 |
| 20260502213718 | 55 | 232 | 5.2 | 7.8 | 0.00 | 0.00 | 0.00 | 60 | 1017.8 |
| 20260502213207 | 55 | 233 | 5.2 | 7.8 | 0.00 | 0.00 | 0.00 | 60 | 1017.8 |
| 20260502212718 | 55 | 238 | 5.2 | 7.0 | 0.00 | 0.00 | 0.00 | 60 | 1017.8 |
| 20260502212206 | 55 | 231 | 4.3 | 7.0 | 0.00 | 0.00 | 0.00 | 60 | 1017.9 |
| 20260502210217 | 55 | 233 | 3.5 | 5.2 | 0.00 | 0.00 | 0.00 | 60 | 1018.0 |
| 20260502205710 | 55 | 234 | 3.5 | 5.2 | 0.00 | 0.00 | 0.00 | 60 | 1018.0 |
| 20260502205217 | 55 | 226 | 3.5 | 5.2 | 0.00 | 0.00 | 0.00 | 60 | 1018.1 |
| 20260502204717 | 55 | 225 | 3.5 | 4.3 | 0.00 | 0.00 | 0.00 | 60 | 1018.1 |
| 20260502204210 | 55 | 237 | 3.5 | 4.3 | 0.00 | 0.00 | 0.00 | 60 | 1018.1 |
| 20260502203714 | 55 | 238 | 4.3 | 4.3 | 0.00 | 0.00 | 0.00 | 60 | 1018.1 |
| 20260502202213 | 55 | 240 | 2.6 | 4.3 | 0.00 | 0.00 | 0.00 | 59 | 1018.2 |
| 20260502201712 | 56 | 253 | 2.6 | 4.3 | 0.00 | 0.00 | 0.00 | 59 | 1018.2 |
| 20260502201219 | 56 | 244 | 2.6 | 3.5 | 0.00 | 0.00 | 0.00 | 59 | 1018.2 |
| 20260502200705 | 56 | 252 | 2.6 | 6.1 | 0.00 | 0.00 | 0.00 | 58 | 1018.3 |
| 20260502195715 | 56 | 250 | 3.5 | 6.1 | 0.00 | 0.00 | 0.00 | 58 | 1018.3 |
| 20260502195207 | 56 | 248 | 3.5 | 6.1 | 0.00 | 0.00 | 0.00 | 58 | 1018.3 |
| 20260502194718 | 57 | 248 | 4.3 | 6.1 | 0.00 | 0.00 | 0.00 | 57 | 1018.3 |
| 20260502194209 | 57 | 252 | 4.3 | 6.1 | 0.00 | 0.00 | 0.00 | 56 | 1018.3 |
| 20260502193715 | 58 | 259 | 4.3 | 6.1 | 0.00 | 0.00 | 0.00 | 55 | 1018.3 |
| 20260502193234 | 59 | 258 | 4.3 | 6.1 | 0.00 | 0.00 | 0.00 | 54 | 1018.3 |
| 20260502192709 | 59 | 259 | 3.5 | 5.2 | 0.00 | 0.00 | 0.00 | 54 | 1018.3 |
| 20260502192215 | 60 | 248 | 3.5 | 5.2 | 0.00 | 0.00 | 0.00 | 53 | 1018.3 |
| 20260502191707 | 60 | 263 | 2.6 | 3.5 | 0.00 | 0.00 | 0.00 | 52 | 1018.3 |
| 20260502190729 | 61 | 259 | 2.6 | 5.2 | 0.00 | 0.00 | 0.00 | 50 | 1018.3 |
| 20260502190210 | 62 | 257 | 2.6 | 3.5 | 0.00 | 0.00 | 0.00 | 49 | 1018.2 |
| 20260502185706 | 62 | 246 | 1.7 | 1.7 | 0.00 | 0.00 | 0.00 | 49 | 1018.2 |
| 20260502185217 | 63 | 195 | 0.9 | 1.7 | 0.00 | 0.00 | 0.00 | 48 | 1018.2 |
| 20260502184705 | 64 | 117 | 0.9 | 1.7 | 0.00 | 0.00 | 0.00 | 46 | 1018.2 |
| 20260502184215 | 65 | 117 | 0.9 | 0.9 | 0.00 | 0.00 | 0.00 | 45 | 1018.1 |
| 20260502183707 | 65 | 117 | 0.9 | 1.7 | 0.00 | 0.00 | 0.00 | 45 | 1018.1 |
| 20260502182709 | 67 | 117 | 0.9 | 1.7 | 0.00 | 0.00 | 0.00 | 41 | 1018.0 |
| 20260502182212 | 67 | 117 | 0.9 | 2.6 | 0.00 | 0.00 | 0.00 | 42 | 1018.0 |
| 20260502181714 | 68 | 117 | 0.9 | 2.6 | 0.00 | 0.00 | 0.00 | 39 | 1017.9 |
| 20260502181207 | 69 | 108 | 0.9 | 2.6 | 0.00 | 0.00 | 0.00 | 39 | 1017.8 |
| 20260502180709 | 69 | 108 | 1.7 | 3.5 | 0.00 | 0.00 | 0.00 | 38 | 1017.8 |
| 20260502180210 | 70 | 111 | 1.7 | 3.5 | 0.00 | 0.00 | 0.00 | 37 | 1017.8 |
| 20260502170205 | 74 | 90 | 2.6 | 6.1 | 0.00 | 0.00 | 0.00 | 33 | 1017.8 |
| 20260502164214 | 74 | 63 | 3.5 | 7.8 | 0.00 | 0.00 | 0.00 | 33 | 1017.9 |
| 20260502163708 | 74 | 69 | 4.3 | 7.8 | 0.00 | 0.00 | 0.00 | 33 | 1017.9 |
| 20260502163218 | 74 | 103 | 4.3 | 8.7 | 0.00 | 0.00 | 0.00 | 32 | 1017.9 |
| 20260502162209 | 74 | 96 | 5.2 | 10.4 | 0.00 | 0.00 | 0.00 | 31 | 1018.0 |
| 20260502161709 | 74 | 39 | 5.2 | 11.3 | 0.00 | 0.00 | 0.00 | 31 | 1018.1 |
| 20260502161210 | 74 | 86 | 6.1 | 11.3 | 0.00 | 0.00 | 0.00 | 30 | 1018.1 |
| 20260502160719 | 74 | 84 | 4.3 | 11.3 | 0.00 | 0.00 | 0.00 | 31 | 1018.2 |
| 20260502152205 | 75 | 88 | 3.5 | 7.8 | 0.00 | 0.00 | 0.00 | 31 | 1018.6 |
| 20260502151215 | 75 | 61 | 2.6 | 7.8 | 0.00 | 0.00 | 0.00 | 31 | 1018.7 |
| 20260502150711 | 75 | 5 | 2.6 | 7.8 | 0.00 | 0.00 | 0.00 | 31 | 1018.7 |
| 20260502150208 | 75 | 343 | 3.5 | 7.8 | 0.00 | 0.00 | 0.00 | 29 | 1018.7 |
| 20260502130208 | 75 | 65 | 4.3 | 10.4 | 0.00 | 0.00 | 0.00 | 31 | 1020.1 |
| 20260502123715 | 74 | 55 | 5.2 | 10.4 | 0.00 | 0.00 | 0.00 | 31 | 1020.3 |
| 20260502123215 | 74 | 50 | 4.3 | 8.7 | 0.00 | 0.00 | 0.00 | 31 | 1020.4 |
| 20260502122713 | 74 | 43 | 3.5 | 8.7 | 0.00 | 0.00 | 0.00 | 31 | 1020.4 |
| 20260502122218 | 74 | 0 | 4.3 | 9.6 | 0.00 | 0.00 | 0.00 | 31 | 1020.6 |
| 20260502121717 | 74 | 28 | 5.2 | 9.6 | 0.00 | 0.00 | 0.00 | 31 | 1020.6 |
| 20260502121210 | 74 | 54 | 4.3 | 10.4 | 0.00 | 0.00 | 0.00 | 31 | 1020.7 |
| 20260502120712 | 74 | 32 | 3.5 | 10.4 | 0.00 | 0.00 | 0.00 | 32 | 1020.7 |
| 20260502120215 | 74 | 51 | 4.3 | 9.6 | 0.00 | 0.00 | 0.00 | 32 | 1020.8 |
| 20260502115718 | 73 | 311 | 4.3 | 9.6 | 0.00 | 0.00 | 0.00 | 33 | 1020.8 |
| 20260502115217 | 73 | 22 | 4.3 | 9.6 | 0.00 | 0.00 | 0.00 | 34 | 1021.0 |
| 20260502113715 | 73 | 86 | 5.2 | 11.3 | 0.00 | 0.00 | 0.00 | 35 | 1021.1 |
| 20260502113217 | 73 | 57 | 5.2 | 11.3 | 0.00 | 0.00 | 0.00 | 35 | 1021.1 |
| 20260502112718 | 72 | 86 | 5.2 | 9.6 | 0.00 | 0.00 | 0.00 | 34 | 1021.2 |
| 20260502112206 | 72 | 55 | 3.5 | 9.6 | 0.00 | 0.00 | 0.00 | 33 | 1021.2 |
| 20260502111716 | 72 | 74 | 3.5 | 10.4 | 0.00 | 0.00 | 0.00 | 33 | 1021.4 |
| 20260502110709 | 72 | 71 | 6.1 | 11.3 | 0.00 | 0.00 | 0.00 | 34 | 1021.5 |
| 20260502110217 | 72 | 40 | 4.3 | 11.3 | 0.00 | 0.00 | 0.00 | 35 | 1021.5 |
| 20260502105710 | 72 | 58 | 2.6 | 11.3 | 0.00 | 0.00 | 0.00 | 36 | 1021.6 |
| 20260502105213 | 72 | 43 | 4.3 | 11.3 | 0.00 | 0.00 | 0.00 | 35 | 1021.7 |
| 20260502104719 | 72 | 64 | 4.3 | 11.3 | 0.00 | 0.00 | 0.00 | 35 | 1021.8 |
| 20260502104212 | 72 | 16 | 4.3 | 16.5 | 0.00 | 0.00 | 0.00 | 36 | 1021.8 |
| 20260502103707 | 71 | 57 | 5.2 | 16.5 | 0.00 | 0.00 | 0.00 | 37 | 1021.9 |
| 20260502103216 | 71 | 9 | 4.3 | 16.5 | 0.00 | 0.00 | 0.00 | 37 | 1021.9 |
| 20260502102706 | 71 | 78 | 3.5 | 13.0 | 0.00 | 0.00 | 0.00 | 38 | 1021.9 |
| 20260502102216 | 71 | 71 | 4.3 | 13.0 | 0.00 | 0.00 | 0.00 | 37 | 1022.0 |
| 20260502101710 | 71 | 91 | 5.2 | 13.0 | 0.00 | 0.00 | 0.00 | 38 | 1022.1 |
| 20260502100206 | 70 | 21 | 5.2 | 11.3 | 0.00 | 0.00 | 0.00 | 39 | 1022.2 |
| 20260502091211 | 69 | 57 | 5.2 | 9.6 | 0.00 | 0.00 | 0.00 | 43 | 1022.6 |
| 20260502090708 | 69 | 70 | 5.2 | 9.6 | 0.00 | 0.00 | 0.00 | 42 | 1022.7 |
| 20260502090217 | 69 | 44 | 5.2 | 9.6 | 0.00 | 0.00 | 0.00 | 43 | 1022.8 |
| 20260502071211 | 63 | 59 | 1.7 | 6.1 | 0.00 | 0.00 | 0.00 | 52 | 1023.1 |
| 20260502070712 | 62 | 36 | 0.9 | 6.1 | 0.00 | 0.00 | 0.00 | 53 | 1023.1 |
| 20260502070209 | 61 | 64 | 0.9 | 2.6 | 0.00 | 0.00 | 0.00 | 57 | 1023.2 |
| 20260502065731 | 60 | 252 | 1.7 | 2.6 | 0.00 | 0.00 | 0.00 | 58 | 1023.2 |
| 20260502065206 | 59 | 235 | 1.7 | 3.5 | 0.00 | 0.00 | 0.00 | 59 | 1023.2 |
| 20260502064712 | 58 | 261 | 1.7 | 3.5 | 0.00 | 0.00 | 0.00 | 60 | 1023.2 |
| 20260502064213 | 58 | 223 | 1.7 | 4.3 | 0.00 | 0.00 | 0.00 | 60 | 1023.1 |
| 20260502063708 | 57 | 229 | 1.7 | 5.2 | 0.00 | 0.00 | 0.00 | 61 | 1023.2 |
| 20260502063216 | 57 | 196 | 2.6 | 6.1 | 0.00 | 0.00 | 0.00 | 62 | 1023.2 |
| 20260502062707 | 56 | 221 | 3.5 | 7.8 | 0.00 | 0.00 | 0.00 | 63 | 1023.2 |
| 20260502061712 | 54 | 247 | 4.3 | 7.0 | 0.00 | 0.00 | 0.00 | 66 | 1023.2 |
| 20260502061218 | 53 | 219 | 3.5 | 7.0 | 0.00 | 0.00 | 0.00 | 67 | 1023.2 |
| 20260502060712 | 52 | 232 | 1.7 | 3.5 | 0.00 | 0.00 | 0.00 | 69 | 1023.3 |
| 20260502060220 | 51 | 171 | 0.9 | 2.6 | 0.00 | 0.00 | 0.00 | 70 | 1023.3 |
| 20260502054709 | 50 | 180 | 0.9 | 3.5 | 0.00 | 0.00 | 0.00 | 71 | 1023.2 |
| 20260502054205 | 49 | 171 | 0.9 | 3.5 | 0.00 | 0.00 | 0.00 | 72 | 1023.2 |